Mason City, IA

9:10 PM CST on February 22, 2018 (GMT -0600)
Mason City Municipal

Weather History for KMCW - June, 2013

Change the Weather History Date:

Sunday, June 30, 2013

  Actual Average Record
Temperature  
Mean Temperature 65 °F 72 °F  
Max Temperature 77 °F 83 °F 101 °F (1933)
Min Temperature 52 °F 60 °F 42 °F (1943)
Degree Days  
Heating Degree Days 0 0  
Month to date heating degree days 53 44  
Since 1 June heating degree days 53 44  
Since 1 July heating degree days 7837 7679  
Cooling Degree Days 0 7  
Month to date cooling degree days 146 138  
Year to date cooling degree days 183 173  
Since 1 June cooling degree days 146 138  
Growing Degree Days 14 (Base 50)    
Moisture  
Dew Point 49 °F    
Average Humidity 62    
Maximum Humidity 93    
Minimum Humidity 31    
Precipitation  
Precipitation 0.00 in 0.17 in 2.25 in (1977)
Month to date precipitation 6.44 5.14  
Year to date precipitation 27.85 17.62  
Snow  
Snow 0.00 in 0.00 in - ()
Month to date snowfall 0.0 0.0  
Since 1 June snowfall 0.0 0.0  
Since 1 July snowfall 56.3 41.2  
Snow Depth 0.00 in    
Sea Level Pressure  
Sea Level Pressure 30.05 in    
Wind  
Wind Speed 10 mph (NNE)    
Max Wind Speed 18 mph    
Max Gust Speed 23 mph    
Visibility 10 miles    
Events      
T = Trace of Precipitation, MM = Missing Value Source: NWS Daily Summary

Daily Weather History Graph

Daily Weather History Graph

Search for Another Location

Airport or City:

Trip Planner

Search our weather history database for the weather conditions in past years. The results will help you decide how hot, cold, wet, or windy it might be!

Date:

Astronomy

Jun. 30, 2013 Rise Set
Actual Time 5:37 AM CDT 8:56 PM CDT
Civil Twilight 5:01 AM CDT 9:32 PM CDT
Nautical Twilight 4:15 AM CDT 10:18 PM CDT
Astronomical Twilight 3:18 AM CDT 11:14 PM CDT
Moon 12:44 AM CDT (6/30) 2:05 PM CDT (6/30)
Length of Visible Light 16h 30m
Length of Day
15h 19m
Last Quarter, 45% of the Moon is Illuminated
Jun 30
Last Quarter
Jul 8
New
Jul 15
First Quarter
Jul 22
Full
Jul 29
Last Quarter

Hourly Weather History & Observations

Time (CDT) Temp. Dew Point Humidity Pressure Visibility Wind Dir Wind Speed Gust Speed Precip Events Conditions
12:53 AM 57.0 °F 53.1 °F 87% 29.95 in 10.0 mi North 9.2 mph - N/A   Clear
1:53 AM 57.0 °F 53.1 °F 87% 29.96 in 10.0 mi North 8.1 mph - N/A   Clear
2:53 AM 55.9 °F 52.0 °F 87% 29.97 in 10.0 mi North 6.9 mph - N/A   Clear
3:53 AM 54.0 °F 51.1 °F 90% 29.99 in 10.0 mi NNW 8.1 mph - N/A   Clear
4:53 AM 54.0 °F 48.9 °F 83% 30.00 in 10.0 mi North 9.2 mph - N/A   Clear
5:53 AM 53.1 °F 48.0 °F 83% 30.01 in 10.0 mi North 8.1 mph - N/A   Clear
6:53 AM 53.1 °F 48.0 °F 83% 30.03 in 10.0 mi North 8.1 mph - N/A   Clear
7:53 AM 57.0 °F 50.0 °F 77% 30.05 in 10.0 mi North 9.2 mph - N/A   Clear
8:53 AM 62.1 °F 50.0 °F 65% 30.05 in 10.0 mi NNE 13.8 mph - N/A   Clear
9:53 AM 66.0 °F 51.1 °F 59% 30.06 in 10.0 mi NNE 12.7 mph - N/A   Clear
10:53 AM 69.1 °F 50.0 °F 51% 30.07 in 10.0 mi NNE 12.7 mph - N/A   Clear
11:53 AM 71.1 °F 50.0 °F 47% 30.07 in 10.0 mi NNE 16.1 mph - N/A   Clear
12:53 PM 73.0 °F 48.9 °F 42% 30.07 in 10.0 mi NNE 15.0 mph 20.7 mph N/A   Clear
1:53 PM 75.0 °F 45.0 °F 34% 30.07 in 10.0 mi NNE 17.3 mph 23.0 mph N/A   Clear
2:53 PM 75.9 °F 43.0 °F 31% 30.07 in 10.0 mi NNE 13.8 mph - N/A   Clear
3:53 PM 75.9 °F 45.0 °F 33% 30.06 in 10.0 mi NE 13.8 mph 19.6 mph N/A   Clear
4:53 PM 75.9 °F 45.0 °F 33% 30.07 in 10.0 mi NNE 12.7 mph 21.9 mph N/A   Clear
5:53 PM 75.0 °F 46.9 °F 37% 30.06 in 10.0 mi NE 10.4 mph - N/A   Clear
6:53 PM 75.9 °F 44.1 °F 32% 30.07 in 10.0 mi NE 9.2 mph - N/A   Clear
7:53 PM 73.0 °F 48.0 °F 41% 30.07 in 10.0 mi NNE 6.9 mph - N/A   Clear
8:53 PM 66.9 °F 50.0 °F 54% 30.08 in 10.0 mi NNE 6.9 mph - N/A   Clear
9:53 PM 61.0 °F 51.1 °F 70% 30.10 in 10.0 mi North 5.8 mph - N/A   Clear
10:53 PM 61.0 °F 51.1 °F 70% 30.11 in 10.0 mi NNW 3.5 mph - N/A   Clear
11:53 PM 60.1 °F 51.1 °F 72% 30.11 in 10.0 mi NNW 3.5 mph - N/A   Clear